Location: Lugrin
(46.4033°N, 6.6674°E)
Time: 01:36:16
(UTC+00:00)

Terra - Pass Details

Date: 18 September 2020
Orbit: 701 x 703 km, 98.2° (Epoch: 31 October)

Event Time Altitude Azimuth Distance (km) Brightness Sun altitude
Exits shadow 20:18:54 17° 33° (NNE) 1,733 3.8 -26.8°
Drops below altitude 10° 20:20:41 10° 14° (NNE) 2,182 4.6 -27.1°
Sets 20:23:23 0° 359° (N) 3,105 5.6 -27.5°
